Regional Weather Roundup
Issued by NWS

Home | Current Version | Previous Version | Graphics & Text | Print | Product List | Glossary On
Versions: 1 2 3 4 5 6 7 8 9 10 11 12 13 14 15 16 17 18 19 20 21 22 23 24 25 26 27 28 29 30 31 32 33 34 35 36 37 38 39 40 41 42 43 44 45 46 47 48 49 50
816
ASUS43 KOAX 260502
RWRNE

WEATHER ROUNDUP FOR NEBRASKA
NATIONAL WEATHER SERVICE OMAHA NE
1200 AM CDT TUE JUL 26 2016

NOTES: SATELLITE DATA IS BEING USED TO AUGMENT CLOUD COVER ABOVE
       12000 FEET.
       "FAIR" INDICATES FEW OR NO CLOUDS BELOW 12,000 FEET WITH NO
       SIGNIFICANT WEATHER AND/OR OBSTRUCTIONS TO VISIBILITY.

  * THESE STATIONS DO NOT REPORT WEATHER SUCH AS RAIN...SNOW OR FOG.

NEZ001>004-019>022-054>056-260600-
NEBRASKA PANHANDLE

CITY           SKY/WX    TMP DP  RH WIND       PRES   REMARKS
SCOTTSBLUFF    CLEAR     75  61  61 SE12      30.10R
ALLIANCE       CLEAR     70  62  76 S13       30.10F
CHADRON        CLEAR     80  60  50 S25G37    30.02R
KIMBALL        CLEAR     69  63  80 SE14G20   30.18S
SIDNEY         CLEAR     71  61  70 S15       30.17S
$$

NEZ057>060-069>072-079>082-260600-
SOUTHWEST NEBRASKA

CITY           SKY/WX    TMP DP  RH WIND       PRES   REMARKS
NORTH PLATTE   CLEAR     72  65  78 SE8       30.13R
IMPERIAL       CLOUDY    73  63  70 SE13      30.14R
LEXINGTON      CLEAR     72  65  79 SE8       30.14R
MCCOOK         PTCLDY    73  63  70 SE10      30.13R
OGALLALA       CLEAR     73  64  72 SE6       30.13S
$$

NEZ005>010-023>029-035>040-094-260600-
NORTH CENTRAL NEBRASKA

CITY           SKY/WX    TMP DP  RH WIND       PRES   REMARKS
VALENTINE      CLEAR     74  62  66 S13       30.08R
AINSWORTH      CLEAR     72  63  72 S10       30.10R
BROKEN BOW     CLEAR     68  64  87 SE5       30.14R
O`NEILL        CLEAR     71  63  75 SE8       30.11S
ORD            CLEAR     69  63  81 CALM      30.11R
THEDFORD       CLEAR     73  67  80 SE12      30.13R
$$

NEZ041-046>049-061>064-073>077-083>087-260600-
SOUTH CENTRAL NEBRASKA

CITY           SKY/WX    TMP DP  RH WIND       PRES   REMARKS
GRAND ISLAND   CLEAR     71  62  73 SE8       30.13R
AURORA         CLEAR     67  64  90 SE6       30.13R
HASTINGS       CLEAR     73  61  65 SE10      30.14R
HEBRON         CLEAR     65  61  86 CALM      30.11R
HOLDREGE       CLEAR     68  61  76 SE5       30.15R
KEARNEY *      CLEAR     66  61  82 SE6       30.15R
YORK           CLEAR     70  64  83 SE6       30.13R
$$

NEZ011>018-030>034-042>045-260600-
NORTHEAST NEBRASKA

CITY           SKY/WX    TMP DP  RH WIND       PRES   REMARKS
NORFOLK        CLEAR     69  62  78 S7        30.11R
ALBION         CLEAR     67  62  85 CALM      30.12S
BLAIR          CLEAR     74  66  76 SE5       30.10S
FREMONT        CLEAR     73  65  76 CALM      30.10S
TEKAMAH        CLEAR     69  65  86 CALM      30.09S
WAYNE          CLEAR     65  64  93 CALM      30.11S
$$

NEZ050>053-065>068-078-088>093-260600-
SOUTHEAST NEBRASKA

CITY           SKY/WX    TMP DP  RH WIND       PRES   REMARKS
LINCOLN        CLEAR     71  64  78 CALM      30.10S
OMAHA EPPLEY   CLEAR     75  66  73 SE6       30.08F
BEATRICE       CLEAR     69  65  88 CALM      30.10R
FALLS CITY     CLEAR     71  67  87 CALM      30.06F
NEBRASKA CITY  CLEAR     71  68  91 CALM      30.09S
PLATTSMOUTH    CLEAR     72  68  87 SE3       30.09F
$$

NEZ044-045-051>053-067-260600-
OMAHA AREA

CITY           SKY/WX    TMP DP  RH WIND       PRES   REMARKS
OMAHA EPPLEY   CLEAR     75  66  73 SE6       30.08F
BLAIR          CLEAR     74  66  76 SE5       30.10S
FREMONT        CLEAR     73  65  76 CALM      30.10S
MILLARD        CLEAR     72  68  88 CALM      30.09S
OFFUTT AFB     CLEAR     67  67 100 E2        30.08F
PLATTSMOUTH    CLEAR     72  68  87 SE3       30.09F
WAHOO          FAIR      69  66  88 CALM      30.10S
$$




USA.gov is the U.S. government's official web portal to all federal, state and local government web resources and services.